Location: Beadle
(51.4667°N, 109.0000°W)
Time: 17:50:39
(UTC+00:00)

O/OREOS (USA 219) - Pass Details

Date: 29 June 2022
Orbit: 621 x 646 km, 72.0° (Epoch: 22 May)

Event Time Altitude Azimuth Distance (km) Brightness Sun altitude
Rises 06:27:28 0° 336° (NNW) 2,962 ? -14.4°
Reaches altitude 10° 06:30:08 10° 350° (N) 2,052 ? -14.5°
Maximum altitude 06:33:55 25° 46° (NE) 1,324 ? -14.6°
Drops below altitude 10° 06:37:42 10° 101° (E) 2,048 ? -14.7°
Enters shadow 06:39:17 - 111° (ESE) 2,577 ? -14.8°
